Regional Weather Roundup
Issued by NWS

Home | Current Version | Previous Version | Text Only | Print | Product List | Glossary Off
Versions: 1 2 3 4 5 6 7 8 9 10 11 12 13 14 15 16 17 18 19 20 21 22 23 24 25 26 27 28 29 30 31 32 33 34 35 36 37 38 39 40 41 42 43 44 45 46 47 48 49 50

000
ASUS45 KCYS 210810
RWRWY

WYOMING REGIONAL WEATHER ROUNDUP
NATIONAL WEATHER SERVICE CHEYENNE WY
200 AM MDT MON JUL 21 2014

NOTE:  "FAIR" INDICATES FEW OR NO CLOUDS BELOW 12,000 FEET
WITH NO SIGNIFICANT WEATHER AND/OR OBSTRUCTIONS TO VISIBILITY.

WYZ001-210900-
YELLOWSTONE NATIONAL PARK

CITY           SKY/WX    TMP DP  RH WIND       PRES   REMARKS
LK YELLOWSTONE   N/A     61  40  45 VRB6      30.22R
W YELLOWSTONE  NOT AVBL

$$
WYZ002>013-054>058-071-098>099-210900-
NORTHERN WYOMING

CITY           SKY/WX    TMP DP  RH WIND       PRES   REMARKS
JACKSON        CLOUDY    64  46  52 W7        30.13R
CODY           CLOUDY    79  39  24 W9        29.93S
GREYBULL       CLOUDY    77  41  27 S7        29.84R
WORLAND        CLOUDY    78  43  28 SW8       29.87R
SHERIDAN       MOCLDY    60  51  72 S3        29.83F
BUFFALO        MOCLDY    70  44  39 W10       29.92S
GILLETTE       PTCLDY    65  53  65 N7        29.84F
HULETT         FAIR      70  55  60 MISG      29.86
NEWCASTLE      FAIR      73  54  49 E10       29.89

$$
WYZ014>020-022>026-101>103-210900-
CENTRAL WYOMING

CITY           SKY/WX    TMP DP  RH WIND       PRES   REMARKS
BIG PINEY      MOCLDY    55  49  80 N7        30.20F
PINEDALE       CLOUDY    54  46  76 CALM      30.22R
DUBOIS         FAIR      63  39  42 NW12      30.16R
LANDER         MOCLDY    72  40  31 CALM      29.99F
RIVERTON       MOCLDY    72  41  32 W10       30.00F
CASPER         PTCLDY    65  40  39 SW10      30.03R
DOUGLAS        MOCLDY    77  41  27 W10       29.99S

$$
WYZ021-027>030-104>119-210900-
SOUTHERN WYOMING

CITY           SKY/WX    TMP DP  RH WIND       PRES   REMARKS
EVANSTON       PTCLDY    56  48  74 SE6       30.22S
KEMMERER       MOSUNNY  N/A N/A N/A N6        30.23F
FORT BRIDGER   FAIR      55  50  83 S10       30.24S
ROCK SPRINGS   PTCLDY    60  42  51 SW5       30.20F
DIXON          FAIR      56  47  72 NE3       30.25S
RAWLINS        CLEAR     63  39  41 SW10      30.21S
SARATOGA       FAIR      57  43  58 W6        30.25R
LARAMIE        PTCLDY    60  44  55 SW15      30.23F
CHEYENNE       CLEAR     65  46  50 W15G23    30.13F
TORRINGTON     MOCLDY    77  47  34 NW7       29.94S
PINE BLUFFS    FAIR      64  46  52 W6        30.05S

$$



USA.gov is the U.S. government's official web portal to all federal, state and local government web resources and services.